Location: Newark
(41.8083°N, 72.2500°W)
Time: 00:53:08
(UTC+00:00)

Vanguard 1 Rocket - Pass Details

Date: 07 December 2021
Orbit: 651 x 4224 km, 34.3° (Epoch: 15 January)

Event Time Altitude Azimuth Distance (km) Brightness Sun altitude
Exits shadow 07:20:41 50° 125° (SE) 2,860 9.8 -51.6°
Drops below altitude 10° 07:35:18 10° 92° (E) 6,452 12.2 -48.9°
Sets 07:41:26 0° 90° (E) 7,912 12.9 -47.8°
